Dallas/Ft Worth, TX

1:32 AM CST on February 18, 2018 (GMT -0600)
Dallas-Fort Worth International

Weather History for KDFW - July, 2012

Change the Weather History Date:

Saturday, July 21, 2012

  Actual Average Record
Temperature  
Mean Temperature 92 °F 86 °F  
Max Temperature 107 °F 96 °F 107 °F (2012)
Min Temperature 76 °F 76 °F 66 °F (1989)
Degree Days  
Heating Degree Days 0 0  
Month to date heating degree days 0 0  
Since 1 June heating degree days 0 0  
Since 1 July heating degree days 0 0  
Cooling Degree Days 27 21  
Month to date cooling degree days 458 420  
Year to date cooling degree days 1730 1333  
Since 1 June cooling degree days 1043 911  
Growing Degree Days 41 (Base 50)    
Moisture  
Dew Point 66 °F    
Average Humidity 52    
Maximum Humidity 82    
Minimum Humidity 21    
Precipitation  
Precipitation T in 0.06 in 1.77 in (1985)
Month to date precipitation 0.78 1.63  
Year to date precipitation 23.30 21.67  
Sea Level Pressure  
Sea Level Pressure 29.88 in    
Wind  
Wind Speed 6 mph (SW)    
Max Wind Speed 24 mph    
Max Gust Speed 31 mph    
Visibility 10 miles    
Events Rain , Thunderstorm    
T = Trace of Precipitation, MM = Missing Value Source: NWS Daily Summary

Daily Weather History Graph

Daily Weather History Graph

Search for Another Location

Airport or City:

Trip Planner

Search our weather history database for the weather conditions in past years. The results will help you decide how hot, cold, wet, or windy it might be!

Date:

Astronomy

Jul. 21, 2012 Rise Set
Actual Time 6:34 AM CDT 8:34 PM CDT
Civil Twilight 6:07 AM CDT 9:01 PM CDT
Nautical Twilight 5:33 AM CDT 9:35 PM CDT
Astronomical Twilight 4:57 AM CDT 10:10 PM CDT
Moon 9:05 AM CDT (7/21) 10:00 PM CDT (7/21)
Length of Visible Light 14h 54m
Length of Day
13h 59m
Waxing Crescent, 7% of the Moon is Illuminated
Jul 21
Waxing Crescent
Jul 26
First Quarter
Aug 1
Full
Aug 9
Last Quarter
Aug 17
New

Hourly Weather History & Observations

Time (CDT) Temp. Heat Index Dew Point Humidity Pressure Visibility Wind Dir Wind Speed Gust Speed Precip Events Conditions
12:53 AM 82.0 °F 85.9 °F 70.0 °F 67% 29.91 in 10.0 mi SW 9.2 mph - N/A   Scattered Clouds
1:53 AM 82.0 °F 85.5 °F 69.1 °F 65% 29.91 in 10.0 mi WSW 5.8 mph - N/A   Scattered Clouds
2:53 AM 79.0 °F - 69.1 °F 72% 29.91 in 10.0 mi SSW 4.6 mph - N/A   Scattered Clouds
3:53 AM 80.1 °F 82.9 °F 69.1 °F 69% 29.91 in 10.0 mi Calm Calm - N/A   Scattered Clouds
4:53 AM 80.6 °F 83.9 °F 69.8 °F 70% 29.93 in 10.0 mi SW 3.5 mph - N/A   Mostly Cloudy
5:53 AM 79.0 °F - 70.0 °F 74% 29.91 in 10.0 mi SSW 3.5 mph - N/A   Scattered Clouds
6:53 AM 77.0 °F - 71.1 °F 82% 29.94 in 10.0 mi NE 6.9 mph - N/A   Scattered Clouds
7:53 AM 81.0 °F 84.9 °F 71.1 °F 72% 29.94 in 10.0 mi Calm Calm - N/A   Scattered Clouds
8:53 AM 84.0 °F 88.4 °F 70.0 °F 63% 29.95 in 10.0 mi SSW 3.5 mph - N/A   Partly Cloudy
9:53 AM 88.0 °F 92.9 °F 70.0 °F 55% 29.94 in 10.0 mi WSW 5.8 mph - N/A   Partly Cloudy
10:53 AM 91.9 °F 95.9 °F 68.0 °F 45% 29.93 in 10.0 mi West 6.9 mph - N/A   Partly Cloudy
11:53 AM 96.1 °F 99.9 °F 66.9 °F 38% 29.93 in 10.0 mi Calm Calm - N/A   Partly Cloudy
12:53 PM 99.0 °F 102.9 °F 66.0 °F 34% 29.92 in 10.0 mi Calm Calm - N/A   Partly Cloudy
1:53 PM 102.0 °F 104.6 °F 63.0 °F 28% 29.90 in 10.0 mi North 4.6 mph - N/A   Scattered Clouds
2:53 PM 102.9 °F 104.2 °F 61.0 °F 25% 29.87 in 10.0 mi WSW 4.6 mph - N/A   Partly Cloudy
3:53 PM 105.1 °F 106.4 °F 60.1 °F 23% 29.84 in 10.0 mi SW 6.9 mph - N/A   Partly Cloudy
4:53 PM 105.1 °F 105.7 °F 59.0 °F 22% 29.81 in 10.0 mi WSW 5.8 mph - N/A   Scattered Clouds
5:53 PM 106.0 °F 106.4 °F 57.9 °F 21% 29.81 in 10.0 mi Calm Calm - N/A   Scattered Clouds
6:40 PM 105.8 °F 106.8 °F 59.0 °F 22% 29.83 in 10.0 mi Calm Calm - N/A Thunderstorm Thunderstorm
6:53 PM 100.9 °F 104.0 °F 64.0 °F 30% 29.80 in 10.0 mi NE 12.7 mph 18.4 mph N/A Thunderstorm Thunderstorm
7:34 PM 96.8 °F 98.0 °F 62.6 °F 32% 29.83 in 10.0 mi South 6.9 mph - 0.00 in Rain Light Rain
7:53 PM 97.0 °F 99.3 °F 64.0 °F 34% 29.80 in 10.0 mi SSW 3.5 mph - 0.00 in   Mostly Cloudy
8:53 PM 95.0 °F 99.0 °F 66.9 °F 40% 29.81 in 10.0 mi NNW 8.1 mph - N/A   Mostly Cloudy
9:53 PM 89.1 °F 94.1 °F 70.0 °F 53% 29.85 in 10.0 mi South 3.5 mph - N/A   Mostly Cloudy
10:53 PM 91.9 °F 95.4 °F 66.9 °F 44% 29.86 in 10.0 mi East 6.9 mph - N/A   Partly Cloudy
11:53 PM 91.0 °F 94.3 °F 66.9 °F 45% 29.87 in 10.0 mi SSE 24.2 mph 29.9 mph N/A   Scattered Clouds